Milan, NH

4:54 AM EDT on October 01, 2016 (GMT -0400)
Berlin Municipal

Weather History for KBML - May, 2014

Change the Weather History Date:

Tuesday, May 6, 2014

  Actual Average Record
Temperature  
Mean Temperature 40 °F -  
Max Temperature 52 °F 60 °F 79 °F (2013)
Min Temperature 30 °F 32 °F 21 °F (2001)
Degree Days  
Heating Degree Days 24    
Moisture  
Dew Point 34 °F    
Average Humidity 68    
Maximum Humidity 92    
Minimum Humidity 50    
Precipitation  
Precipitation 0.01 in - - ()
Sea Level Pressure  
Sea Level Pressure 29.93 in    
Wind  
Wind Speed 7 mph (NW)    
Max Wind Speed 13 mph    
Max Gust Speed 18 mph    
Visibility 10 miles    
Events Rain    
Averages and records for this station are not official NWS values.
T = Trace of Precipitation, MM = Missing Value Source: NWS Daily Summary

Daily Weather History Graph

Daily Weather History Graph

Search for Another Location

Airport or City:

Trip Planner

Search our weather history database for the weather conditions in past years. The results will help you decide how hot, cold, wet, or windy it might be!

Date:

Astronomy

May. 06, 2014 Rise Set
Actual Time 5:28 AM EDT 7:55 PM EDT
Civil Twilight 4:55 AM EDT 8:28 PM EDT
Nautical Twilight 4:14 AM EDT 9:09 PM EDT
Astronomical Twilight 3:28 AM EDT 9:55 PM EDT
Moon 11:44 AM EDT (5/6) 1:10 AM EDT (5/6)
Length of Visible Light 15h 32m
Length of Day
14h 27m
Waxing Crescent, 46% of the Moon is Illuminated
May 6
Waxing Crescent
May 6
First Quarter
May 14
Full
May 21
Last Quarter
May 28
New

Hourly Weather History & Observations

Time (EDT) Temp. Windchill Dew Point Humidity Pressure Visibility Wind Dir Wind Speed Gust Speed Precip Events Conditions
12:52 AM 46.0 °F 42.5 °F 37.9 °F 73% 29.85 in 10.0 mi Variable 6.9 mph - N/A   Overcast
2:52 AM 44.1 °F 41.5 °F 37.9 °F 79% 29.83 in 10.0 mi Variable 4.6 mph - N/A   Mostly Cloudy
3:52 AM 42.1 °F - 37.9 °F 85% 29.83 in 10.0 mi Calm Calm - N/A   Overcast
7:52 AM 44.1 °F 39.5 °F 33.1 °F 65% 29.88 in 10.0 mi WNW 8.1 mph 17.3 mph N/A   Overcast
8:52 AM 44.1 °F 40.1 °F 33.1 °F 65% 29.88 in 10.0 mi Variable 6.9 mph - N/A   Overcast
10:52 AM 48.0 °F - 33.1 °F 56% 29.88 in 10.0 mi West 9.2 mph - N/A   Overcast
11:52 AM 50.0 °F - 33.1 °F 52% 29.88 in 10.0 mi WNW 8.1 mph - N/A   Overcast
12:52 PM 51.1 °F - 33.1 °F 50% 29.87 in 10.0 mi NW 11.5 mph 17.3 mph N/A   Overcast
1:52 PM 50.0 °F - 34.0 °F 54% 29.89 in 10.0 mi North 12.7 mph 17.3 mph N/A   Overcast
2:52 PM 48.9 °F - 34.0 °F 56% 29.91 in 10.0 mi Variable 6.9 mph - 0.00 in   Overcast
3:52 PM 48.0 °F - 35.1 °F 61% 29.92 in 10.0 mi NNW 10.4 mph - 0.00 in Rain Light Rain
4:52 PM 48.0 °F - 34.0 °F 58% 29.93 in 10.0 mi NNW 11.5 mph - 0.01 in   Overcast
5:52 PM 48.0 °F - 34.0 °F 58% 29.96 in 10.0 mi NNW 10.4 mph - N/A   Overcast
6:52 PM 48.0 °F - 35.1 °F 61% 29.97 in 10.0 mi NNW 11.5 mph 18.4 mph N/A   Mostly Cloudy
7:52 PM 46.9 °F - 34.0 °F 61% 29.99 in 10.0 mi NNW 5.8 mph - N/A   Mostly Cloudy
8:52 PM 41.0 °F - 34.0 °F 76% 30.02 in 10.0 mi Calm Calm - N/A   Clear
9:52 PM 34.0 °F - 30.9 °F 89% 30.04 in 10.0 mi Calm Calm - N/A   Clear
10:52 PM 30.9 °F - 28.9 °F 92% 30.06 in 10.0 mi Calm Calm - N/A   Scattered Clouds
11:52 PM 32.0 °F - 30.0 °F 92% 30.07 in 10.0 mi Calm Calm - N/A   Overcast